Regional Weather Roundup
Issued by NWS

Home | Current Version | Previous Version | Text Only | Print | Product List | Glossary Off
Versions: 1 2 3 4 5 6 7 8 9 10 11 12 13 14 15 16 17 18 19 20 21 22 23 24 25 26 27 28 29 30 31 32 33 34 35 36 37 38 39 40 41 42 43 44 45 46 47 48 49 50

000
ASUS43 KLMK 011810
RWRKY
KENTUCKY REGIONAL WEATHER ROUNDUP
NATIONAL WEATHER SERVICE LOUISVILLE KY
200 PM EDT SUN MAY 01 2016

NOTE "FAIR" INDICATES FEW OR NO CLOUDS BELOW 12,000 FEET
WITH NO SIGNIFICANT WEATHER AND/OR OBSTRUCTIONS TO VISIBILITY.

KYZ001>023-026-027-061>063-070>075-011900-
WESTERN AND SOUTH CENTRAL KENTUCKY

CITY           SKY/WX    TMP DP  RH WIND       PRES   REMARKS
PADUCAH        PTSUNNY   76  65  68 SW10      29.92F
HENDERSON      PTSUNNY   77  64  65 SW14      29.91S
OWENSBORO      PTSUNNY   79  66  64 SW9       29.92F
HOPKINSVILLE   MOSUNNY   78  66  66 SW8       29.93F
BOWLING GREEN  PTSUNNY   79  66  64 S9        29.94F
GLASGOW        PTSUNNY   78  65  65 SW7       29.95F
$$

KYZ024-025-028>034-038-045-046-053-011900-
NORTH CENTRAL KENTUCKY

CITY           SKY/WX    TMP DP  RH WIND       PRES   REMARKS
LOUISVILLE/SDF PTSUNNY   80  62  54 S6        29.91S
LOUISVILLE/LOU PTSUNNY   80  63  55 VRB6      29.92S
FORT KNOX      MOSUNNY   77  63  62 SW10      29.91S
$$

KYZ035>037-039>044-047>052-055>060-089>105-011900-
NORTHEAST KENTUCKY

CITY           SKY/WX    TMP DP  RH WIND       PRES   REMARKS
LEXINGTON      MOSUNNY   78  64  61 SW14      29.94S
COVINGTON      PTSUNNY   74  59  59 W6        29.93F
FRANKFORT      PTSUNNY   78  62  57 W5        29.92S
$$

KYZ054-064>069-076>088-106>120-011900-
SOUTHEAST KENTUCKY

CITY           SKY/WX    TMP DP  RH WIND       PRES   REMARKS
JACKSON        PTSUNNY   75  63  66 CALM      29.97F
LONDON         PTSUNNY   77  62  59 SW7       29.96F
SOMERSET       MOSUNNY   77  61  57 SW8G16    29.97F
MIDDLESBORO    MOSUNNY   78  64  63 S9        29.99F
MONTICELLO     PTCLDY    79  65  62 W14G21    29.98S
$$





USA.gov is the U.S. government's official web portal to all federal, state and local government web resources and services.